Home   Weather   Sukkur   Past weeks

Flag for Pakistan Past Weather in Sukkur, Sindh, Pakistan — Yesterday and Last 2 Weeks

Now
86 °F

Haze.


Feels Like: 85 °F
Forecast: 79 / 105 °F
Wind: 12 mph from Northwest

Location: Sukkur

Current Time: Apr 29, 2017 at 3:07:31 am

Latest Report: Apr 29, 2017 at 1:00 am


Visibility: 2 mi

Pressure: 29.62 "Hg

Humidity: 35%

Dew Point: 55 °F

Location of SukkurLocation

Past Weather in Sukkur — Graph

°F

Sukkur Temperature Yesterday

Maximum temperature yesterday: 108 °F (at 2:00 pm)
Minimum temperature yesterday: 82 °F (at 5:00 am)
Average temperature yesterday: 94 °F

High & Low Weather Summary for the Past Weeks

 TemperatureHumidityPressure
High120 °F (Apr 20, 4:00 pm)79% (Apr 27, 8:00 am)29.74 "Hg (Apr 27, 8:00 am)
Low73 °F (Apr 14, 6:00 am)8% (Apr 23, 5:00 pm)29.39 "Hg (Apr 20, 5:00 pm)
Average95 °F38%29.58 "Hg
* Reported Apr 14 1:00 am — Apr 29 1:00 am, Sukkur, Weather by CustomWeather, © 2017

Note: Actual official high and low records may vary slightly from our data, if they occured in-between our weather recording intervals... More about our weather records

Advertising

Sukkur Weather History for the Previous 24 Hours

Scroll right to see more
 ConditionsComfort  
Time TempWeatherWind HumidityBarometerVisibility
1:00 am
Sat, Apr 29
86 °FHaze.12 mph35%29.62 "Hg2 mi
12:00 am88 °FHaze.12 mph35%29.65 "Hg2 mi
11:00 pm
Fri, Apr 28
88 °FHaze.12 mph33%29.65 "Hg2 mi
10:00 pm90 °FHaze.12 mph31%29.62 "Hg2 mi
9:00 pm91 °FHaze.7 mph32%29.59 "Hg2 mi
8:00 pm95 °FHaze.7 mph28%29.59 "Hg2 mi
7:00 pm100 °FHaze.No wind21%29.59 "Hg2 mi
6:00 pm106 °FHaze.No wind14%29.59 "Hg2 mi
4:00 pm93 °FSunny.12 mph30%29.74 "Hg4 mi
3:00 pm108 °FDuststorm.17 mph16%29.62 "Hg2 mi
2:00 pm108 °FHaze.9 mph16%29.65 "Hg2 mi
1:30 pm106 °FHaze.7 mph18%29.68 "Hg2 mi
12:00 pm102 °FHaze.5 mph31%29.71 "Hg2 mi
11:00 am99 °FHaze.No wind37%29.74 "Hg2 mi
10:00 am95 °FHaze.No wind44%29.74 "Hg2 mi
9:30 am90 °FHaze.7 mph59%29.74 "Hg2 mi
8:00 am82 °FHaze.No wind66%29.71 "Hg2 mi
6:00 am82 °FHaze.9 mph58%29.65 "Hg2 mi
5:00 am82 °FHaze.9 mph58%29.65 "Hg2 mi
3:00 am88 °FHaze.12 mph52%29.65 "Hg2 mi
Weather by CustomWeather, © 2017

See weather overviewHow to use our weather pages